Regional Weather Roundup
Issued by NWS

Home | Current Version | Previous Version | Text Only | Print | Product List | Glossary On
Versions: 1 2 3 4 5 6 7 8 9 10 11 12 13 14 15 16 17 18 19 20 21 22 23 24 25 26 27 28 29 30 31 32 33 34 35 36 37 38 39 40 41 42 43 44 45 46 47 48 49 50
000
ASUS43 KLMK 312002
RWRKY
KENTUCKY REGIONAL WEATHER ROUNDUP
NATIONAL WEATHER SERVICE LOUISVILLE KY
400 PM EDT FRI OCT 31 2014

NOTE "FAIR" INDICATES FEW OR NO CLOUDS BELOW 12,000 FEET
WITH NO SIGNIFICANT WEATHER AND/OR OBSTRUCTIONS TO VISIBILITY.

KYZ001>023-026-027-061>063-070>075-312100-
WESTERN AND SOUTH CENTRAL KENTUCKY

CITY           SKY/WX    TMP DP  RH WIND       PRES   REMARKS
PADUCAH        MOSUNNY   49  25  39 N22G31    30.17R
HENDERSON      CLOUDY    43  27  52 NW22G36   30.14R
OWENSBORO      PTSUNNY   46  28  49 NW25G38   30.09S
HOPKINSVILLE   PTSUNNY   46  29  51 NW15G26   30.08R
BOWLING GREEN  CLOUDY    43  33  68 NW16G26   30.05R
GLASGOW        NOT AVBL
$$

KYZ024-025-028>034-038-045-046-053-312100-
NORTH CENTRAL KENTUCKY

CITY           SKY/WX    TMP DP  RH WIND       PRES   REMARKS
LOUISVILLE/SDF LGTSLEET  41  36  82 NW12G21   30.01R
LOUISVILLE/LOU RAIN      40  37  89 NW13G23   30.02R FOG     WCI  32
FORT KNOX      CLOUDY    39  36  87 NW10G26   30.01R WCI  33
$$

KYZ035>037-039>044-047>052-055>060-089>105-312100-
NORTHEAST KENTUCKY

CITY           SKY/WX    TMP DP  RH WIND       PRES   REMARKS
LEXINGTON      LGT RAIN  43  37  79 NW21G31   29.93R
COVINGTON      LGT RAIN  41  36  82 NW15G22   29.93R
FRANKFORT      LGT RAIN  39  36  89 NW20G28   29.95R WCI  29
$$

KYZ054-064>069-076>088-106>120-312100-
SOUTHEAST KENTUCKY

CITY           SKY/WX    TMP DP  RH WIND       PRES   REMARKS
JACKSON        CLOUDY    45  42  89 CALM      29.87F
LONDON         LGT RAIN  46  42  86 W9        29.89F FOG
SOMERSET       LGT RAIN  45  43  93 W6        29.92F
MIDDLESBORO    CLOUDY    46  44  95 CALM      29.90F FOG
MONTICELLO     CLOUDY    47  44  89 W8        29.93F FOG
$$




USA.gov is the U.S. government's official web portal to all federal, state and local government web resources and services.